contact:dominique.lefevre@mio.osupytheas.fr, maurice.libes@osupytheas.fr, didier.mallarino@osupytheas.fr
Project:EMSO http://www.emso-fr.org/EMSO-France
Depth: 2436.0 m
Title:EMSO Ligure Ouest : Data MII capteur MICROCAT
DateTime_Computer,Latitude,Longitude,Temperature,Conductivity,Pressure,DateTime_Instrument
DateTime_Computer,Latitude,Longitude,degC,S m-1,dbar,DateTime_Instrument
2022-11-02T00:01:22Z,42.805,6.029,13.3016,4.60066,2470.693,2022-11-02T02:03:19Z
2022-11-02T00:04:25Z,42.805,6.029,13.3011,4.60068,2470.646,2022-11-02T02:06:22Z
2022-11-02T00:07:28Z,42.805,6.029,13.3017,4.60068,2470.693,2022-11-02T02:09:25Z
2022-11-02T00:10:31Z,42.805,6.029,13.3012,4.60064,2470.67,2022-11-02T02:12:28Z
2022-11-02T00:13:34Z,42.805,6.029,13.3013,4.60065,2470.684,2022-11-02T02:15:31Z
2022-11-02T00:16:37Z,42.805,6.029,13.3013,4.60069,2470.684,2022-11-02T02:18:34Z
2022-11-02T00:19:40Z,42.805,6.029,13.3012,4.60067,2470.684,2022-11-02T02:21:37Z
2022-11-02T00:22:43Z,42.805,6.029,13.3013,4.60068,2470.661,2022-11-02T02:24:40Z
2022-11-02T00:25:46Z,42.805,6.029,13.3013,4.60074,2470.693,2022-11-02T02:27:43Z
2022-11-02T00:28:49Z,42.805,6.029,13.3010,4.60073,2470.684,2022-11-02T02:30:46Z
2022-11-02T00:31:52Z,42.805,6.029,13.3016,4.60078,2470.693,2022-11-02T02:33:49Z
2022-11-02T00:34:55Z,42.805,6.029,13.3013,4.60079,2470.707,2022-11-02T02:36:52Z
2022-11-02T00:37:58Z,42.805,6.029,13.3059,4.60092,2470.684,2022-11-02T02:39:55Z
2022-11-02T00:41:02Z,42.805,6.029,13.3021,4.60086,2470.646,2022-11-02T02:42:58Z
2022-11-02T00:44:05Z,42.805,6.029,13.3044,4.60087,2470.693,2022-11-02T02:46:02Z
2022-11-02T00:47:08Z,42.805,6.029,13.3023,4.60090,2470.707,2022-11-02T02:49:05Z
2022-11-02T00:50:11Z,42.805,6.029,13.3029,4.60095,2470.684,2022-11-02T02:52:08Z
2022-11-02T00:53:14Z,42.805,6.029,13.3018,4.60089,2470.707,2022-11-02T02:55:11Z
2022-11-02T00:56:17Z,42.805,6.029,13.3015,4.60094,2470.693,2022-11-02T02:58:14Z
2022-11-02T00:59:20Z,42.805,6.029,13.3051,4.60112,2470.707,2022-11-02T03:01:17Z
2022-11-02T01:02:23Z,42.805,6.029,13.3020,4.60106,2470.684,2022-11-02T03:04:20Z
2022-11-02T01:05:26Z,42.805,6.029,13.3021,4.60106,2470.693,2022-11-02T03:07:23Z
2022-11-02T01:08:29Z,42.805,6.029,13.3041,4.60084,2470.707,2022-11-02T03:10:26Z
2022-11-02T01:11:32Z,42.805,6.029,13.3055,4.60086,2470.693,2022-11-02T03:13:29Z
2022-11-02T01:14:35Z,42.805,6.029,13.3036,4.60097,2470.707,2022-11-02T03:16:32Z
2022-11-02T01:17:38Z,42.805,6.029,13.3031,4.60081,2470.717,2022-11-02T03:19:35Z
2022-11-02T01:20:41Z,42.805,6.029,13.3039,4.60081,2470.684,2022-11-02T03:22:38Z
2022-11-02T01:23:44Z,42.805,6.029,13.3019,4.60086,2470.693,2022-11-02T03:25:41Z
2022-11-02T01:26:48Z,42.805,6.029,13.3013,4.60086,2470.717,2022-11-02T03:28:45Z
2022-11-02T01:29:51Z,42.805,6.029,13.3023,4.60092,2470.717,2022-11-02T03:31:48Z
2022-11-02T01:32:54Z,42.805,6.029,13.3035,4.60091,2470.717,2022-11-02T03:34:51Z
2022-11-02T01:35:57Z,42.805,6.029,13.3039,4.60084,2470.73,2022-11-02T03:37:54Z
2022-11-02T01:39:00Z,42.805,6.029,13.3019,4.60084,2470.67,2022-11-02T03:40:57Z
2022-11-02T01:42:03Z,42.805,6.029,13.3017,4.60085,2470.717,2022-11-02T03:44:00Z
2022-11-02T01:45:06Z,42.805,6.029,13.3021,4.60079,2470.693,2022-11-02T03:47:03Z
2022-11-02T01:48:09Z,42.805,6.029,13.3014,4.60082,2470.693,2022-11-02T03:50:06Z
2022-11-02T01:51:12Z,42.805,6.029,13.3014,4.60077,2470.693,2022-11-02T03:53:09Z
2022-11-02T01:54:15Z,42.805,6.029,13.3023,4.60085,2470.656,2022-11-02T03:56:12Z
2022-11-02T01:57:18Z,42.805,6.029,13.3055,4.60089,2470.707,2022-11-02T03:59:15Z
2022-11-02T02:00:21Z,42.805,6.029,13.3013,4.60089,2470.73,2022-11-02T04:02:18Z
2022-11-02T02:03:24Z,42.805,6.029,13.3014,4.60069,2470.684,2022-11-02T04:05:21Z
2022-11-02T02:06:27Z,42.805,6.029,13.3024,4.60086,2470.646,2022-11-02T04:08:24Z
2022-11-02T02:09:31Z,42.805,6.029,13.3022,4.60084,2470.646,2022-11-02T04:11:28Z
2022-11-02T02:12:34Z,42.805,6.029,13.3023,4.60094,2470.717,2022-11-02T04:14:31Z
2022-11-02T02:15:37Z,42.805,6.029,13.3021,4.60082,2470.73,2022-11-02T04:17:34Z
2022-11-02T02:18:40Z,42.805,6.029,13.3043,4.60090,2470.707,2022-11-02T04:20:37Z
2022-11-02T02:21:43Z,42.805,6.029,13.3023,4.60087,2470.67,2022-11-02T04:23:40Z
2022-11-02T02:24:46Z,42.805,6.029,13.3034,4.60088,2470.693,2022-11-02T04:26:43Z
2022-11-02T02:27:49Z,42.805,6.029,13.3015,4.60090,2470.693,2022-11-02T04:29:46Z
2022-11-02T02:30:52Z,42.805,6.029,13.3035,4.60093,2470.693,2022-11-02T04:32:49Z
2022-11-02T02:33:55Z,42.805,6.029,13.3036,4.60099,2470.67,2022-11-02T04:35:52Z
2022-11-02T02:36:58Z,42.805,6.029,13.3016,4.60109,2470.684,2022-11-02T04:38:55Z
2022-11-02T02:40:01Z,42.805,6.029,13.3024,4.60092,2470.717,2022-11-02T04:41:58Z
2022-11-02T02:43:04Z,42.805,6.029,13.3014,4.60079,2470.67,2022-11-02T04:45:01Z
2022-11-02T02:46:07Z,42.805,6.029,13.3040,4.60074,2470.684,2022-11-02T04:48:04Z
2022-11-02T02:49:11Z,42.805,6.029,13.3041,4.60087,2470.707,2022-11-02T04:51:08Z
2022-11-02T02:52:14Z,42.805,6.029,13.3017,4.60085,2470.693,2022-11-02T04:54:11Z
2022-11-02T02:55:17Z,42.805,6.029,13.3016,4.60080,2470.646,2022-11-02T04:57:14Z
2022-11-02T02:58:20Z,42.805,6.029,13.3012,4.60075,2470.707,2022-11-02T05:00:17Z
2022-11-02T03:01:23Z,42.805,6.029,13.3040,4.60085,2470.73,2022-11-02T05:03:20Z
2022-11-02T03:04:26Z,42.805,6.029,13.3030,4.60077,2470.67,2022-11-02T05:06:23Z
2022-11-02T03:07:29Z,42.805,6.029,13.3012,4.60081,2470.693,2022-11-02T05:09:26Z
2022-11-02T03:10:32Z,42.805,6.029,13.3013,4.60081,2470.707,2022-11-02T05:12:29Z
2022-11-02T03:13:35Z,42.805,6.029,13.3021,4.60078,2470.693,2022-11-02T05:15:32Z
2022-11-02T03:16:38Z,42.805,6.029,13.3014,4.60079,2470.707,2022-11-02T05:18:35Z
2022-11-02T03:19:41Z,42.805,6.029,13.3020,4.60079,2470.684,2022-11-02T05:21:38Z
2022-11-02T03:22:44Z,42.805,6.029,13.3038,4.60086,2470.693,2022-11-02T05:24:41Z
2022-11-02T03:25:47Z,42.805,6.029,13.3035,4.60084,2470.693,2022-11-02T05:27:44Z
2022-11-02T03:28:51Z,42.805,6.029,13.3014,4.60075,2470.684,2022-11-02T05:30:47Z
2022-11-02T03:31:54Z,42.805,6.029,13.3019,4.60078,2470.693,2022-11-02T05:33:51Z
2022-11-02T03:34:57Z,42.805,6.029,13.3019,4.60077,2470.67,2022-11-02T05:36:54Z
2022-11-02T03:38:00Z,42.805,6.029,13.3012,4.60073,2470.693,2022-11-02T05:39:57Z
2022-11-02T03:41:03Z,42.805,6.029,13.3017,4.60073,2470.707,2022-11-02T05:43:00Z
2022-11-02T03:44:06Z,42.805,6.029,13.3014,4.60073,2470.693,2022-11-02T05:46:03Z
2022-11-02T03:47:09Z,42.805,6.029,13.3011,4.60069,2470.693,2022-11-02T05:49:06Z
2022-11-02T03:50:12Z,42.805,6.029,13.3009,4.60064,2470.67,2022-11-02T05:52:09Z
2022-11-02T03:53:15Z,42.805,6.029,13.3018,4.60069,2470.693,2022-11-02T05:55:12Z
2022-11-02T03:56:18Z,42.805,6.029,13.3015,4.60074,2470.693,2022-11-02T05:58:15Z
2022-11-02T03:59:21Z,42.805,6.029,13.3018,4.60069,2470.693,2022-11-02T06:01:18Z
2022-11-02T04:02:24Z,42.805,6.029,13.3011,4.60068,2470.684,2022-11-02T06:04:21Z
2022-11-02T04:05:27Z,42.805,6.029,13.3011,4.60072,2470.67,2022-11-02T06:07:24Z
2022-11-02T04:08:30Z,42.805,6.029,13.3016,4.60065,2470.693,2022-11-02T06:10:27Z
2022-11-02T04:11:33Z,42.805,6.029,13.3015,4.60067,2470.67,2022-11-02T06:13:30Z
2022-11-02T04:14:37Z,42.805,6.029,13.3011,4.60071,2470.67,2022-11-02T06:16:34Z
2022-11-02T04:17:40Z,42.805,6.029,13.3011,4.60069,2470.693,2022-11-02T06:19:37Z
2022-11-02T04:20:43Z,42.805,6.029,13.3014,4.60072,2470.684,2022-11-02T06:22:40Z
2022-11-02T04:23:46Z,42.805,6.029,13.3016,4.60069,2470.73,2022-11-02T06:25:43Z
2022-11-02T04:26:49Z,42.805,6.029,13.3017,4.60072,2470.684,2022-11-02T06:28:46Z
2022-11-02T04:29:52Z,42.805,6.029,13.3011,4.60068,2470.693,2022-11-02T06:31:49Z
2022-11-02T04:32:55Z,42.805,6.029,13.3014,4.60072,2470.684,2022-11-02T06:34:52Z
2022-11-02T04:35:58Z,42.805,6.029,13.3011,4.60072,2470.693,2022-11-02T06:37:55Z
2022-11-02T04:39:01Z,42.805,6.029,13.3013,4.60069,2470.684,2022-11-02T06:40:58Z
2022-11-02T04:42:04Z,42.805,6.029,13.3010,4.60072,2470.684,2022-11-02T06:44:01Z
2022-11-02T04:45:07Z,42.805,6.029,13.3011,4.60064,2470.693,2022-11-02T06:47:04Z
2022-11-02T04:48:10Z,42.805,6.029,13.3014,4.60064,2470.67,2022-11-02T06:50:07Z
2022-11-02T04:51:13Z,42.805,6.029,13.3015,4.60071,2470.684,2022-11-02T06:53:10Z
2022-11-02T04:54:17Z,42.805,6.029,13.3012,4.60064,2470.707,2022-11-02T06:56:14Z
2022-11-02T04:57:20Z,42.805,6.029,13.3010,4.60062,2470.646,2022-11-02T06:59:17Z
2022-11-02T05:00:23Z,42.805,6.029,13.3011,4.60065,2470.633,2022-11-02T07:02:20Z
2022-11-02T05:03:26Z,42.805,6.029,13.3012,4.60063,2470.67,2022-11-02T07:05:23Z
2022-11-02T05:06:29Z,42.805,6.029,13.3015,4.60065,2470.684,2022-11-02T07:08:26Z
2022-11-02T05:09:32Z,42.805,6.029,13.3013,4.60066,2470.707,2022-11-02T07:11:29Z
2022-11-02T05:12:35Z,42.805,6.029,13.3014,4.60084,2470.646,2022-11-02T07:14:32Z
2022-11-02T05:15:38Z,42.805,6.029,13.3015,4.60073,2470.646,2022-11-02T07:17:35Z
2022-11-02T05:18:41Z,42.805,6.029,13.3014,4.60063,2470.67,2022-11-02T07:20:38Z
2022-11-02T05:21:44Z,42.805,6.029,13.3011,4.60063,2470.67,2022-11-02T07:23:41Z
2022-11-02T05:24:47Z,42.805,6.029,13.3014,4.60061,2470.684,2022-11-02T07:26:44Z
2022-11-02T05:27:50Z,42.805,6.029,13.3012,4.60067,2470.67,2022-11-02T07:29:47Z
2022-11-02T05:30:53Z,42.805,6.029,13.3014,4.60067,2470.646,2022-11-02T07:32:50Z
2022-11-02T05:33:57Z,42.805,6.029,13.3012,4.60061,2470.693,2022-11-02T07:35:54Z
2022-11-02T05:37:00Z,42.805,6.029,13.3008,4.60067,2470.684,2022-11-02T07:38:57Z
2022-11-02T05:40:03Z,42.805,6.029,13.3012,4.60066,2470.661,2022-11-02T07:42:00Z
2022-11-02T05:43:06Z,42.805,6.029,13.3011,4.60067,2470.67,2022-11-02T07:45:03Z
2022-11-02T05:46:09Z,42.805,6.029,13.3014,4.60064,2470.67,2022-11-02T07:48:06Z
2022-11-02T05:49:12Z,42.805,6.029,13.3013,4.60061,2470.637,2022-11-02T07:51:09Z
2022-11-02T05:52:15Z,42.805,6.029,13.3011,4.60060,2470.646,2022-11-02T07:54:12Z
2022-11-02T05:55:18Z,42.805,6.029,13.3014,4.60060,2470.661,2022-11-02T07:57:15Z
2022-11-02T05:58:21Z,42.805,6.029,13.3011,4.60063,2470.693,2022-11-02T08:00:18Z
2022-11-02T06:01:24Z,42.805,6.029,13.3011,4.60063,2470.646,2022-11-02T08:03:21Z
2022-11-02T06:04:27Z,42.805,6.029,13.3014,4.60061,2470.661,2022-11-02T08:06:24Z
2022-11-02T06:07:30Z,42.805,6.029,13.3011,4.60059,2470.67,2022-11-02T08:09:27Z
2022-11-02T06:10:33Z,42.805,6.029,13.3015,4.60059,2470.6,2022-11-02T08:12:30Z
2022-11-02T06:13:36Z,42.805,6.029,13.3014,4.60062,2470.637,2022-11-02T08:15:33Z
2022-11-02T06:16:40Z,42.805,6.029,13.3011,4.60059,2470.67,2022-11-02T08:18:37Z
2022-11-02T06:19:43Z,42.805,6.029,13.3014,4.60059,2470.624,2022-11-02T08:21:40Z
2022-11-02T06:22:46Z,42.805,6.029,13.3014,4.60058,2470.646,2022-11-02T08:24:43Z
2022-11-02T06:25:49Z,42.805,6.029,13.3013,4.60058,2470.67,2022-11-02T08:27:46Z
2022-11-02T06:28:52Z,42.805,6.029,13.3013,4.60059,2470.646,2022-11-02T08:30:49Z
2022-11-02T06:31:55Z,42.805,6.029,13.3011,4.60057,2470.67,2022-11-02T08:33:52Z
2022-11-02T06:34:58Z,42.805,6.029,13.3009,4.60057,2470.661,2022-11-02T08:36:55Z
2022-11-02T06:38:01Z,42.805,6.029,13.3013,4.60057,2470.646,2022-11-02T08:39:58Z
2022-11-02T06:41:04Z,42.805,6.029,13.3010,4.60058,2470.684,2022-11-02T08:43:01Z
2022-11-02T06:44:07Z,42.805,6.029,13.3015,4.60059,2470.624,2022-11-02T08:46:04Z
2022-11-02T06:47:10Z,42.805,6.029,13.3010,4.60058,2470.646,2022-11-02T08:49:07Z
2022-11-02T06:50:13Z,42.805,6.029,13.3014,4.60058,2470.693,2022-11-02T08:52:10Z
2022-11-02T06:53:16Z,42.805,6.029,13.3009,4.60060,2470.67,2022-11-02T08:55:13Z
2022-11-02T06:56:19Z,42.805,6.029,13.3013,4.60059,2470.661,2022-11-02T08:58:16Z
2022-11-02T06:59:23Z,42.805,6.029,13.3014,4.60060,2470.6,2022-11-02T09:01:20Z
2022-11-02T07:02:26Z,42.805,6.029,13.3011,4.60059,2470.624,2022-11-02T09:04:23Z
2022-11-02T07:05:29Z,42.805,6.029,13.3009,4.60058,2470.637,2022-11-02T09:07:26Z
2022-11-02T07:08:32Z,42.805,6.029,13.3016,4.60057,2470.624,2022-11-02T09:10:29Z
2022-11-02T07:11:35Z,42.805,6.029,13.3014,4.60059,2470.646,2022-11-02T09:13:32Z
2022-11-02T07:14:38Z,42.805,6.029,13.3011,4.60057,2470.67,2022-11-02T09:16:35Z
2022-11-02T07:17:41Z,42.805,6.029,13.3011,4.60058,2470.67,2022-11-02T09:19:38Z
2022-11-02T07:20:44Z,42.805,6.029,13.3015,4.60059,2470.67,2022-11-02T09:22:41Z
2022-11-02T07:23:47Z,42.805,6.029,13.3013,4.60059,2470.684,2022-11-02T09:25:44Z
2022-11-02T07:26:50Z,42.805,6.029,13.3008,4.60059,2470.646,2022-11-02T09:28:47Z
2022-11-02T07:29:53Z,42.805,6.029,13.3015,4.60059,2470.67,2022-11-02T09:31:50Z
2022-11-02T07:32:56Z,42.805,6.029,13.3007,4.60058,2470.624,2022-11-02T09:34:53Z
2022-11-02T07:35:59Z,42.805,6.029,13.3011,4.60058,2470.661,2022-11-02T09:37:56Z
2022-11-02T07:39:02Z,42.805,6.029,13.3014,4.60057,2470.637,2022-11-02T09:40:59Z
2022-11-02T07:42:06Z,42.805,6.029,13.3009,4.60059,2470.646,2022-11-02T09:44:03Z
2022-11-02T07:45:09Z,42.805,6.029,13.3010,4.60059,2470.684,2022-11-02T09:47:06Z
2022-11-02T07:48:12Z,42.805,6.029,13.3014,4.60058,2470.624,2022-11-02T09:50:09Z
2022-11-02T07:51:15Z,42.805,6.029,13.3013,4.60058,2470.684,2022-11-02T09:53:12Z
2022-11-02T07:54:18Z,42.805,6.029,13.3011,4.60058,2470.646,2022-11-02T09:56:15Z
2022-11-02T07:57:21Z,42.805,6.029,13.3011,4.60058,2470.661,2022-11-02T09:59:18Z
2022-11-02T08:00:24Z,42.805,6.029,13.3013,4.60059,2470.61,2022-11-02T10:02:21Z
2022-11-02T08:03:27Z,42.805,6.029,13.3013,4.60057,2470.646,2022-11-02T10:05:24Z
2022-11-02T08:06:30Z,42.805,6.029,13.3015,4.60057,2470.684,2022-11-02T10:08:27Z
2022-11-02T08:09:33Z,42.805,6.029,13.3011,4.60058,2470.646,2022-11-02T10:11:30Z
2022-11-02T08:12:36Z,42.805,6.029,13.3010,4.60059,2470.637,2022-11-02T10:14:33Z
2022-11-02T08:15:39Z,42.805,6.029,13.3014,4.60059,2470.646,2022-11-02T10:17:36Z
2022-11-02T08:18:42Z,42.805,6.029,13.3011,4.60057,2470.646,2022-11-02T10:20:39Z
2022-11-02T08:21:46Z,42.805,6.029,13.3012,4.60057,2470.646,2022-11-02T10:23:43Z
2022-11-02T08:24:49Z,42.805,6.029,13.3011,4.60058,2470.67,2022-11-02T10:26:46Z
2022-11-02T08:27:52Z,42.805,6.029,13.3010,4.60057,2470.646,2022-11-02T10:29:49Z
2022-11-02T08:30:55Z,42.805,6.029,13.3014,4.60057,2470.67,2022-11-02T10:32:52Z
2022-11-02T08:33:58Z,42.805,6.029,13.3009,4.60057,2470.67,2022-11-02T10:35:55Z
2022-11-02T08:37:01Z,42.805,6.029,13.3008,4.60057,2470.661,2022-11-02T10:38:58Z
2022-11-02T08:40:04Z,42.805,6.029,13.3009,4.60057,2470.656,2022-11-02T10:42:01Z
2022-11-02T08:43:07Z,42.805,6.029,13.3010,4.60057,2470.646,2022-11-02T10:45:04Z
2022-11-02T08:46:10Z,42.805,6.029,13.3014,4.60057,2470.646,2022-11-02T10:48:07Z
2022-11-02T08:49:13Z,42.805,6.029,13.3012,4.60057,2470.637,2022-11-02T10:51:10Z
2022-11-02T08:52:16Z,42.805,6.029,13.3011,4.60057,2470.624,2022-11-02T10:54:13Z
2022-11-02T08:55:19Z,42.805,6.029,13.3014,4.60057,2470.67,2022-11-02T10:57:16Z
2022-11-02T08:58:22Z,42.805,6.029,13.3013,4.60057,2470.646,2022-11-02T11:00:19Z
2022-11-02T09:01:26Z,42.805,6.029,13.3011,4.60057,2470.67,2022-11-02T11:03:23Z
2022-11-02T09:04:29Z,42.805,6.029,13.3012,4.60057,2470.624,2022-11-02T11:06:26Z
2022-11-02T09:07:32Z,42.805,6.029,13.3014,4.60057,2470.67,2022-11-02T11:09:29Z
2022-11-02T09:10:35Z,42.805,6.029,13.3011,4.60057,2470.707,2022-11-02T11:12:32Z
2022-11-02T09:13:38Z,42.805,6.029,13.3011,4.60057,2470.684,2022-11-02T11:15:35Z
2022-11-02T09:16:41Z,42.805,6.029,13.3012,4.60057,2470.67,2022-11-02T11:18:38Z
2022-11-02T09:19:44Z,42.805,6.029,13.3013,4.60057,2470.646,2022-11-02T11:21:41Z
2022-11-02T09:22:47Z,42.805,6.029,13.3012,4.60057,2470.684,2022-11-02T11:24:44Z
2022-11-02T09:25:50Z,42.805,6.029,13.3011,4.60057,2470.67,2022-11-02T11:27:47Z
2022-11-02T09:28:53Z,42.805,6.029,13.3007,4.60056,2470.67,2022-11-02T11:30:50Z
2022-11-02T09:31:56Z,42.805,6.029,13.3012,4.60057,2470.684,2022-11-02T11:33:53Z
2022-11-02T09:34:59Z,42.805,6.029,13.3010,4.60057,2470.67,2022-11-02T11:36:56Z
2022-11-02T09:38:03Z,42.805,6.029,13.3013,4.60060,2470.646,2022-11-02T11:40:00Z
2022-11-02T09:41:06Z,42.805,6.029,13.3014,4.60058,2470.661,2022-11-02T11:43:03Z
2022-11-02T09:44:09Z,42.805,6.029,13.3014,4.60058,2470.684,2022-11-02T11:46:06Z
2022-11-02T09:47:12Z,42.805,6.029,13.3011,4.60059,2470.707,2022-11-02T11:49:09Z
2022-11-02T09:50:15Z,42.805,6.029,13.3011,4.60058,2470.684,2022-11-02T11:52:12Z
2022-11-02T09:53:18Z,42.805,6.029,13.3010,4.60059,2470.684,2022-11-02T11:55:15Z
2022-11-02T09:56:21Z,42.805,6.029,13.3011,4.60058,2470.693,2022-11-02T11:58:18Z
2022-11-02T09:59:24Z,42.805,6.029,13.3017,4.60057,2470.684,2022-11-02T12:01:21Z
2022-11-02T10:02:27Z,42.805,6.029,13.3014,4.60058,2470.693,2022-11-02T12:04:24Z
2022-11-02T10:05:30Z,42.805,6.029,13.3012,4.60057,2470.707,2022-11-02T12:07:27Z
2022-11-02T10:08:33Z,42.805,6.029,13.3012,4.60057,2470.67,2022-11-02T12:10:30Z
2022-11-02T10:11:36Z,42.805,6.029,13.3015,4.60057,2470.73,2022-11-02T12:13:33Z
2022-11-02T10:14:39Z,42.805,6.029,13.3014,4.60058,2470.693,2022-11-02T12:16:36Z
2022-11-02T10:17:43Z,42.805,6.029,13.3011,4.60058,2470.693,2022-11-02T12:19:40Z
2022-11-02T10:20:46Z,42.805,6.029,13.3016,4.60057,2470.717,2022-11-02T12:22:43Z
2022-11-02T10:23:49Z,42.805,6.029,13.3009,4.60058,2470.717,2022-11-02T12:25:46Z
2022-11-02T10:26:52Z,42.805,6.029,13.3013,4.60057,2470.707,2022-11-02T12:28:49Z
2022-11-02T10:29:55Z,42.805,6.029,13.3013,4.60057,2470.693,2022-11-02T12:31:52Z
2022-11-02T10:32:58Z,42.805,6.029,13.3012,4.60057,2470.717,2022-11-02T12:34:55Z
2022-11-02T10:36:01Z,42.805,6.029,13.3010,4.60057,2470.73,2022-11-02T12:37:58Z
2022-11-02T10:39:04Z,42.805,6.029,13.3013,4.60057,2470.717,2022-11-02T12:41:01Z
2022-11-02T10:42:07Z,42.805,6.029,13.3016,4.60057,2470.717,2022-11-02T12:44:04Z
2022-11-02T10:45:10Z,42.805,6.029,13.3011,4.60057,2470.717,2022-11-02T12:47:07Z
2022-11-02T10:48:13Z,42.805,6.029,13.3011,4.60058,2470.679,2022-11-02T12:50:10Z
2022-11-02T10:51:16Z,42.805,6.029,13.3014,4.60058,2470.717,2022-11-02T12:53:13Z
2022-11-02T10:54:19Z,42.805,6.029,13.3018,4.60057,2470.717,2022-11-02T12:56:16Z
2022-11-02T10:57:23Z,42.805,6.029,13.3010,4.60058,2470.717,2022-11-02T12:59:20Z
2022-11-02T11:00:26Z,42.805,6.029,13.3012,4.60057,2470.717,2022-11-02T13:02:23Z
2022-11-02T11:03:29Z,42.805,6.029,13.3006,4.60057,2470.73,2022-11-02T13:05:26Z
2022-11-02T11:06:32Z,42.805,6.029,13.3013,4.60058,2470.73,2022-11-02T13:08:29Z
2022-11-02T11:09:35Z,42.805,6.029,13.3014,4.60060,2470.777,2022-11-02T13:11:32Z
2022-11-02T11:12:38Z,42.805,6.029,13.3013,4.60059,2470.73,2022-11-02T13:14:35Z
2022-11-02T11:15:41Z,42.805,6.029,13.3014,4.60059,2470.717,2022-11-02T13:17:38Z
2022-11-02T11:18:44Z,42.805,6.029,13.3015,4.60059,2470.73,2022-11-02T13:20:41Z
2022-11-02T11:21:47Z,42.805,6.029,13.3010,4.60060,2470.74,2022-11-02T13:23:44Z
2022-11-02T11:24:50Z,42.805,6.029,13.3011,4.60058,2470.74,2022-11-02T13:26:47Z
2022-11-02T11:27:53Z,42.805,6.029,13.3014,4.60059,2470.754,2022-11-02T13:29:50Z
2022-11-02T11:30:56Z,42.805,6.029,13.3015,4.60058,2470.75,2022-11-02T13:32:53Z
2022-11-02T11:34:00Z,42.805,6.029,13.3009,4.60059,2470.763,2022-11-02T13:35:57Z
2022-11-02T11:37:03Z,42.805,6.029,13.3012,4.60058,2470.73,2022-11-02T13:39:00Z
2022-11-02T11:40:06Z,42.805,6.029,13.3014,4.60058,2470.754,2022-11-02T13:42:03Z
2022-11-02T11:43:09Z,42.805,6.029,13.3013,4.60058,2470.74,2022-11-02T13:45:06Z
2022-11-02T11:46:12Z,42.805,6.029,13.3014,4.60058,2470.717,2022-11-02T13:48:09Z
2022-11-02T11:49:15Z,42.805,6.029,13.3013,4.60059,2470.787,2022-11-02T13:51:12Z
2022-11-02T11:52:18Z,42.805,6.029,13.3013,4.60058,2470.717,2022-11-02T13:54:15Z
2022-11-02T11:55:21Z,42.805,6.029,13.3015,4.60058,2470.763,2022-11-02T13:57:18Z
2022-11-02T11:58:24Z,42.805,6.029,13.3013,4.60059,2470.74,2022-11-02T14:00:21Z
2022-11-02T12:01:27Z,42.805,6.029,13.3012,4.60058,2470.754,2022-11-02T14:03:24Z
2022-11-02T12:04:30Z,42.805,6.029,13.3013,4.60058,2470.74,2022-11-02T14:06:27Z
2022-11-02T12:07:33Z,42.805,6.029,13.3016,4.60059,2470.754,2022-11-02T14:09:30Z
2022-11-02T12:10:36Z,42.805,6.029,13.3015,4.60058,2470.763,2022-11-02T14:12:33Z
2022-11-02T12:13:39Z,42.805,6.029,13.3012,4.60059,2470.763,2022-11-02T14:15:37Z
2022-11-02T12:16:43Z,42.805,6.029,13.3012,4.60058,2470.777,2022-11-02T14:18:40Z
2022-11-02T12:19:46Z,42.805,6.029,13.3011,4.60058,2470.787,2022-11-02T14:21:43Z
2022-11-02T12:22:49Z,42.805,6.029,13.3013,4.60058,2470.763,2022-11-02T14:24:46Z
2022-11-02T12:25:52Z,42.805,6.029,13.3012,4.60058,2470.763,2022-11-02T14:27:49Z
2022-11-02T12:28:55Z,42.805,6.029,13.3011,4.60058,2470.777,2022-11-02T14:30:52Z
2022-11-02T12:31:58Z,42.805,6.029,13.3014,4.60057,2470.74,2022-11-02T14:33:55Z
2022-11-02T12:35:01Z,42.805,6.029,13.3015,4.60058,2470.8,2022-11-02T14:36:58Z
2022-11-02T12:38:04Z,42.805,6.029,13.3011,4.60058,2470.74,2022-11-02T14:40:01Z
2022-11-02T12:41:07Z,42.805,6.029,13.3010,4.60060,2470.787,2022-11-02T14:43:04Z
2022-11-02T12:44:10Z,42.805,6.029,13.3011,4.60057,2470.777,2022-11-02T14:46:07Z
2022-11-02T12:47:13Z,42.805,6.029,13.3014,4.60059,2470.777,2022-11-02T14:49:10Z
2022-11-02T12:50:16Z,42.805,6.029,13.3013,4.60059,2470.75,2022-11-02T14:52:13Z
2022-11-02T12:53:19Z,42.805,6.029,13.3011,4.60059,2470.777,2022-11-02T14:55:17Z
2022-11-02T12:56:23Z,42.805,6.029,13.3015,4.60059,2470.787,2022-11-02T14:58:20Z
2022-11-02T12:59:26Z,42.805,6.029,13.3014,4.60059,2470.8,2022-11-02T15:01:23Z
2022-11-02T13:02:29Z,42.805,6.029,13.3014,4.60061,2470.763,2022-11-02T15:04:26Z
2022-11-02T13:05:32Z,42.805,6.029,13.3014,4.60059,2470.81,2022-11-02T15:07:29Z
2022-11-02T13:08:35Z,42.805,6.029,13.3014,4.60059,2470.777,2022-11-02T15:10:32Z
2022-11-02T13:11:38Z,42.805,6.029,13.3014,4.60059,2470.8,2022-11-02T15:13:35Z
2022-11-02T13:14:41Z,42.805,6.029,13.3011,4.60059,2470.763,2022-11-02T15:16:38Z
2022-11-02T13:17:44Z,42.805,6.029,13.3014,4.60059,2470.8,2022-11-02T15:19:41Z
2022-11-02T13:20:47Z,42.805,6.029,13.3011,4.60062,2470.777,2022-11-02T15:22:44Z
2022-11-02T13:23:50Z,42.805,6.029,13.3010,4.60060,2470.74,2022-11-02T15:25:47Z
2022-11-02T13:26:53Z,42.805,6.029,13.3011,4.60059,2470.777,2022-11-02T15:28:50Z
2022-11-02T13:29:56Z,42.805,6.029,13.3012,4.60059,2470.824,2022-11-02T15:31:53Z
2022-11-02T13:32:59Z,42.805,6.029,13.3010,4.60060,2470.787,2022-11-02T15:34:57Z
2022-11-02T13:36:03Z,42.805,6.029,13.3014,4.60060,2470.824,2022-11-02T15:38:00Z
2022-11-02T13:39:06Z,42.805,6.029,13.3011,4.60059,2470.81,2022-11-02T15:41:03Z
2022-11-02T13:42:09Z,42.805,6.029,13.3014,4.60060,2470.763,2022-11-02T15:44:06Z
2022-11-02T13:45:12Z,42.805,6.029,13.3010,4.60061,2470.81,2022-11-02T15:47:09Z
2022-11-02T13:48:15Z,42.805,6.029,13.3015,4.60059,2470.787,2022-11-02T15:50:12Z
2022-11-02T13:51:18Z,42.805,6.029,13.3013,4.60061,2470.81,2022-11-02T15:53:15Z
2022-11-02T13:54:21Z,42.805,6.029,13.3011,4.60059,2470.81,2022-11-02T15:56:18Z
2022-11-02T13:57:24Z,42.805,6.029,13.3011,4.60061,2470.824,2022-11-02T15:59:21Z
2022-11-02T14:00:27Z,42.805,6.029,13.3012,4.60059,2470.8,2022-11-02T16:02:24Z
2022-11-02T14:03:30Z,42.805,6.029,13.3011,4.60062,2470.81,2022-11-02T16:05:27Z
2022-11-02T14:06:33Z,42.805,6.029,13.3014,4.60062,2470.787,2022-11-02T16:08:30Z
2022-11-02T14:09:36Z,42.805,6.029,13.3012,4.60059,2470.8,2022-11-02T16:11:33Z
2022-11-02T14:12:39Z,42.805,6.029,13.3015,4.60064,2470.8,2022-11-02T16:14:36Z
2022-11-02T14:15:43Z,42.805,6.029,13.3013,4.60061,2470.787,2022-11-02T16:17:40Z
2022-11-02T14:18:46Z,42.805,6.029,13.3011,4.60062,2470.763,2022-11-02T16:20:43Z
2022-11-02T14:21:49Z,42.805,6.029,13.3014,4.60059,2470.824,2022-11-02T16:23:46Z
2022-11-02T14:24:52Z,42.805,6.029,13.3015,4.60059,2470.787,2022-11-02T16:26:49Z
2022-11-02T14:27:55Z,42.805,6.029,13.3009,4.60058,2470.763,2022-11-02T16:29:52Z
2022-11-02T14:30:58Z,42.805,6.029,13.3010,4.60059,2470.824,2022-11-02T16:32:55Z
2022-11-02T14:34:01Z,42.805,6.029,13.3011,4.60061,2470.833,2022-11-02T16:35:58Z
2022-11-02T14:37:04Z,42.805,6.029,13.3011,4.60060,2470.754,2022-11-02T16:39:01Z
2022-11-02T14:40:07Z,42.805,6.029,13.3015,4.60060,2470.787,2022-11-02T16:42:04Z
2022-11-02T14:43:10Z,42.805,6.029,13.3011,4.60058,2470.787,2022-11-02T16:45:07Z
2022-11-02T14:46:13Z,42.805,6.029,13.3018,4.60060,2470.8,2022-11-02T16:48:10Z
2022-11-02T14:49:16Z,42.805,6.029,13.3014,4.60060,2470.81,2022-11-02T16:51:13Z
2022-11-02T14:52:20Z,42.805,6.029,13.3014,4.60059,2470.787,2022-11-02T16:54:17Z
2022-11-02T14:55:23Z,42.805,6.029,13.3012,4.60059,2470.833,2022-11-02T16:57:20Z
2022-11-02T14:58:26Z,42.805,6.029,13.3017,4.60060,2470.763,2022-11-02T17:00:23Z
2022-11-02T15:01:29Z,42.805,6.029,13.3015,4.60062,2470.787,2022-11-02T17:03:26Z